Weather History for Plant City, FL

Change the Weather History Date:

Saturday, July 28, 2012

  Actual Average Record
Temperature  
Mean Temperature 85 °F -  
Max Temperature 93 °F 92 °F 97 °F (1968)
Min Temperature 77 °F 71 °F 68 °F (1931)
Cooling Degree Days 20    
Growing Degree Days 35 (Base 50)    
Moisture  
Dew Point 76 °F    
Average Humidity 70    
Maximum Humidity 100    
Minimum Humidity 49    
Precipitation  
Precipitation 0.08 in - - ()
Sea Level Pressure  
Sea Level Pressure 30.10 in    
Wind  
Wind Speed 1 mph (WSW)    
Max Wind Speed 8 mph    
Max Gust Speed -    
Visibility 10 miles    
Events Rain    
Averages and records for this station are not official NWS values.
T = Trace of Precipitation, MM = Missing Value Source: NWS Daily Summary

Daily Weather History Graph

Daily Weather History Graph

Search for Another Location

Airport:

Trip Planner

Search our weather history database for the weather conditions in past years. The results will help you decide how hot, cold, wet, or windy it might be!

Date:

Astronomy

Jul. 28, 2012 Rise Set
Actual Time 6:49 AM EDT 8:20 PM EDT
Civil Twilight 6:23 AM EDT 8:46 PM EDT
Nautical Twilight 5:53 AM EDT 9:16 PM EDT
Astronomical Twilight 5:21 AM EDT 9:48 PM EDT
Moon 4:19 PM EDT (7/28) 2:10 AM EDT (7/28)
Length of Visible Light 14h 22m
Length of Day
13h 31m
Waxing Gibbous, 75% of the Moon is Illuminated
Jul 28
Waxing Gibbous
Aug 1
Full
Aug 9
Last Quarter
Aug 17
New
Aug 24
First Quarter

Hourly Weather History & Observations

Time (EDT) Temp. Heat Index Dew Point Humidity Pressure Visibility Wind Dir Wind Speed Gust Speed Precip Events Conditions
12:15 AM 82.4 °F 90.9 °F 77.0 °F 84% 30.11 in 10.0 mi Calm Calm - N/A   Mostly Cloudy
12:35 AM 80.6 °F 89.3 °F 80.6 °F 100% 30.11 in 10.0 mi Calm Calm - N/A   Scattered Clouds
12:55 AM 80.6 °F 87.1 °F 77.0 °F 89% 30.11 in 10.0 mi Calm Calm - N/A   Clear
1:15 AM 80.6 °F 87.1 °F 77.0 °F 89% 30.11 in 10.0 mi Calm Calm - N/A   Mostly Cloudy
1:35 AM 80.6 °F 87.1 °F 77.0 °F 89% 30.11 in 10.0 mi Calm Calm - N/A   Scattered Clouds
2:15 AM 78.8 °F - - N/A% 30.09 in 10.0 mi Calm Calm - N/A   Scattered Clouds
2:35 AM 80.6 °F - - N/A% 30.09 in 10.0 mi Calm Calm - N/A   Scattered Clouds
2:55 AM 78.8 °F - - N/A% 30.08 in 10.0 mi Calm Calm - N/A   Clear
3:15 AM 78.8 °F - - N/A% 30.08 in 10.0 mi Calm Calm - N/A   Clear
3:55 AM 77.0 °F - - N/A% 30.07 in 10.0 mi Calm Calm - N/A   Clear
4:15 AM 77.0 °F - - N/A% 30.07 in 10.0 mi Calm Calm - N/A   Clear
4:35 AM 77.0 °F - - N/A% 30.07 in 10.0 mi Calm Calm - N/A   Clear
4:55 AM 77.0 °F - - N/A% 30.07 in 10.0 mi Calm Calm - N/A   Clear
5:15 AM 77.0 °F - - N/A% 30.07 in 10.0 mi Calm Calm - N/A   Clear
5:55 AM 77.0 °F - - N/A% 30.08 in 10.0 mi Calm Calm - N/A   Clear
6:15 AM 77.0 °F - - N/A% 30.09 in 10.0 mi Calm Calm - N/A   Clear
6:35 AM 77.0 °F - - N/A% 30.09 in 10.0 mi Calm Calm - N/A   Clear
6:55 AM 77.0 °F - - N/A% 30.11 in 10.0 mi Calm Calm - N/A   Clear
7:15 AM 77.0 °F - - N/A% 30.11 in 7.0 mi Calm Calm - N/A   Clear
7:35 AM 77.0 °F - - N/A% 30.12 in 7.0 mi Calm Calm - N/A   Clear
7:55 AM 78.8 °F - - N/A% 30.12 in 10.0 mi Calm Calm - N/A   Clear
8:15 AM 80.6 °F - - N/A% 30.12 in 10.0 mi SSE 3.5 mph - N/A   Clear
8:55 AM 84.2 °F 98.3 °F 80.6 °F 89% 30.14 in 10.0 mi Calm Calm - N/A   Clear
9:15 AM 84.2 °F 98.3 °F 80.6 °F 89% 30.14 in 10.0 mi SSW 3.5 mph - N/A   Clear
9:35 AM 86.0 °F 101.9 °F 80.6 °F 84% 30.14 in 10.0 mi WSW 3.5 mph - N/A   Clear
9:55 AM 86.0 °F 99.3 °F 78.8 °F 79% 30.14 in 10.0 mi SSW 3.5 mph - N/A   Scattered Clouds
10:15 AM 86.0 °F 99.3 °F 78.8 °F 79% 30.14 in 10.0 mi SSW 4.6 mph - N/A   Scattered Clouds
10:35 AM 87.8 °F 99.7 °F 77.0 °F 70% 30.14 in 10.0 mi Calm Calm - N/A   Clear
10:55 AM 87.8 °F 99.7 °F 77.0 °F 70% 30.14 in 10.0 mi Calm Calm - N/A   Clear
11:15 AM 87.8 °F 99.7 °F 77.0 °F 70% 30.14 in 10.0 mi West 3.5 mph - N/A   Clear
11:35 AM 89.6 °F 102.2 °F 77.0 °F 66% 30.14 in 10.0 mi WSW 4.6 mph - N/A   Scattered Clouds
11:55 AM 91.4 °F 102.5 °F 75.2 °F 59% 30.14 in 10.0 mi South 3.5 mph - N/A   Scattered Clouds
12:15 PM 89.6 °F 99.8 °F 75.2 °F 62% 30.13 in 10.0 mi West 5.8 mph - N/A   Mostly Cloudy
12:35 PM 87.8 °F 97.6 °F 75.2 °F 66% 30.13 in 10.0 mi WNW 4.6 mph - N/A   Overcast
12:55 PM 89.6 °F 99.8 °F 75.2 °F 62% 30.12 in 10.0 mi SW 6.9 mph - N/A   Mostly Cloudy
1:15 PM 91.4 °F 100.1 °F 73.4 °F 55% 30.12 in 10.0 mi SSW 4.6 mph - N/A   Scattered Clouds
1:35 PM 93.2 °F 102.4 °F 73.4 °F 52% 30.10 in 10.0 mi WSW 8.1 mph - N/A   Clear
1:55 PM 91.4 °F 98.4 °F 71.6 °F 52% 30.10 in 10.0 mi WSW 4.6 mph - N/A   Clear
2:15 PM 91.4 °F 98.4 °F 71.6 °F 52% 30.09 in 10.0 mi Calm Calm - N/A   Scattered Clouds
2:35 PM 93.2 °F 102.4 °F 73.4 °F 52% 30.09 in 10.0 mi WNW 5.8 mph - N/A   Mostly Cloudy
2:55 PM 93.2 °F 102.4 °F 73.4 °F 52% 30.08 in 10.0 mi Calm Calm - N/A   Scattered Clouds
3:15 PM 93.2 °F 102.4 °F 73.4 °F 52% 30.08 in 10.0 mi WSW 3.5 mph - N/A   Scattered Clouds
3:35 PM 93.2 °F 100.5 °F 71.6 °F 49% 30.08 in 10.0 mi WNW 4.6 mph - N/A   Scattered Clouds
4:15 PM 91.4 °F 100.1 °F 73.4 °F 55% 30.06 in 10.0 mi West 3.5 mph - N/A   Overcast
4:55 PM 89.6 °F 102.2 °F 77.0 °F 66% 30.06 in 5.0 mi NW 3.5 mph - 0.02 in Rain Heavy Rain
5:15 PM 84.2 °F 96.1 °F 78.8 °F 84% 30.06 in 3.0 mi ENE 8.1 mph - 0.06 in Rain Heavy Rain